This is the latest recevied weather packets stored in our database for station/object DC7RY. If no packets are shown the sender has not sent any weather packets the latest 10 day(s).
| Time | Temp. | Humidity | Pressure | Rain* | Wind** | Luminosity | Snow |
|---|---|---|---|---|---|---|---|
| 1777743016 | 26.67° C | 31% | 1011.5 hPa | 0 mm | - | 136 W/m² | - |
| 1777742422 | 27.22° C | 29% | 1011.5 hPa | 0 mm | - | 127 W/m² | - |
| 1777741829 | 27.22° C | 29% | 1011.7 hPa | 0 mm | - | 139 W/m² | - |
| 1777741218 | 27.78° C | 28% | 1011.7 hPa | 0 mm | - | 155 W/m² | - |
| 1777740621 | 27.78° C | 28% | 1011.9 hPa | 0 mm | - | 163 W/m² | - |
| 1777740028 | 28.33° C | 27% | 1012.1 hPa | 0 mm | - | 175 W/m² | - |
| 1777739419 | 28.33° C | 27% | 1012.2 hPa | 0 mm | - | 172 W/m² | - |
| 1777738825 | 28.33° C | 25% | 1012.4 hPa | 0 mm | - | 211 W/m² | - |
| 1777738232 | 28.33° C | 27% | 1012.6 hPa | 0 mm | - | 231 W/m² | - |
| 1777737624 | 28.33° C | 26% | 1012.5 hPa | 0 mm | - | 233 W/m² | - |
| 1777737029 | 28.33° C | 26% | 1012.7 hPa | 0 mm | - | 266 W/m² | - |
| 1777736420 | 28.89° C | 26% | 1012.9 hPa | 0 mm | - | 259 W/m² | - |
| 1777735828 | 28.89° C | 24% | 1013.1 hPa | 0 mm | - | 285 W/m² | - |
| 1777735220 | 28.89° C | 27% | 1013.2 hPa | 0 mm | - | 329 W/m² | - |
| 1777734627 | 28.33° C | 24% | 1013.2 hPa | 0 mm | - | 355 W/m² | - |
| 1777734019 | 27.78° C | 27% | 1013.3 hPa | 0 mm | - | 354 W/m² | - |
| 1777733426 | 28.33° C | 26% | 1013.4 hPa | 0 mm | - | 327 W/m² | - |
| 1777732831 | 28.89° C | 26% | 1013.5 hPa | 0 mm | - | 336 W/m² | - |
| 1777732220 | 29.44° C | 24% | 1013.8 hPa | 0 mm | - | 383 W/m² | - |
| 1777731625 | 29.44° C | 25% | 1013.9 hPa | 0 mm | - | 399 W/m² | - |
| 1777731017 | 28.89° C | 25% | 1014.1 hPa | 0 mm | - | 399 W/m² | - |
| 1777730425 | 28.89° C | 24% | 1014.2 hPa | 0 mm | - | 403 W/m² | - |
| 1777729832 | 28.33° C | 25% | 1014.2 hPa | 0 mm | - | 402 W/m² | - |
| 1777729224 | 27.78° C | 24% | 1014.3 hPa | 0 mm | - | 421 W/m² | - |
| 1777728631 | 27.78° C | 25% | 1014.5 hPa | 0 mm | - | 408 W/m² | - |
* Rain latest hour (hover to see other rain measurements)
** Current wind speed in m/s (hover to see current wind gust speed)